Year,Month,Day,Hour,Minute,Value (Times are PST for temperature in C)
2014,06,22,00,00,14.20
2014,06,22,00,01,14.10
2014,06,22,00,02,14.10
2014,06,22,00,03,14.10
2014,06,22,00,04,14.10
2014,06,22,00,05,14.10
2014,06,22,00,06,14.10
2014,06,22,00,07,14.10
2014,06,22,00,08,14.10
2014,06,22,00,09,14.10
2014,06,22,00,10,14.10
2014,06,22,00,11,14.10
2014,06,22,00,12,14.10
2014,06,22,00,13,14.00
2014,06,22,00,14,14.00
2014,06,22,00,15,14.00
2014,06,22,00,16,14.00
2014,06,22,00,17,14.00
2014,06,22,00,18,14.00
2014,06,22,00,19,14.00
2014,06,22,00,20,13.90
2014,06,22,00,21,13.90
2014,06,22,00,22,13.90
2014,06,22,00,23,13.90
2014,06,22,00,24,13.90
2014,06,22,00,25,13.90
2014,06,22,00,26,13.80
2014,06,22,00,27,13.80
2014,06,22,00,28,13.80
2014,06,22,00,29,13.80
2014,06,22,00,30,13.80
2014,06,22,00,31,13.80
2014,06,22,00,32,13.80
2014,06,22,00,33,13.80
2014,06,22,00,34,13.80
2014,06,22,00,35,13.80
2014,06,22,00,36,13.80
2014,06,22,00,37,13.80
2014,06,22,00,38,13.80
2014,06,22,00,39,13.80
2014,06,22,00,40,13.80
2014,06,22,00,41,13.80
2014,06,22,00,42,13.80
2014,06,22,00,43,13.80
2014,06,22,00,44,13.80
2014,06,22,00,45,13.80
2014,06,22,00,46,13.80
2014,06,22,00,47,13.80
2014,06,22,00,48,13.80
2014,06,22,00,49,13.80
2014,06,22,00,50,13.80
2014,06,22,00,51,13.80
2014,06,22,00,52,13.80
2014,06,22,00,53,13.80
2014,06,22,00,54,13.80
2014,06,22,00,55,13.80
2014,06,22,00,56,13.80
2014,06,22,00,57,13.80
2014,06,22,00,58,13.80
2014,06,22,00,59,13.80
2014,06,22,01,00,13.80
2014,06,22,01,01,13.80
2014,06,22,01,02,13.80
2014,06,22,01,03,13.80
2014,06,22,01,04,13.80
2014,06,22,01,05,13.80
2014,06,22,01,06,13.80
2014,06,22,01,07,13.80
2014,06,22,01,08,13.80
2014,06,22,01,09,13.80
2014,06,22,01,10,13.70
2014,06,22,01,11,13.70
2014,06,22,01,12,13.70
2014,06,22,01,13,13.70
2014,06,22,01,14,13.70
2014,06,22,01,15,13.70
2014,06,22,01,16,13.70
2014,06,22,01,17,13.70
2014,06,22,01,18,13.70
2014,06,22,01,19,13.70
2014,06,22,01,20,13.70
2014,06,22,01,21,13.70
2014,06,22,01,22,13.70
2014,06,22,01,23,13.70
2014,06,22,01,24,13.70
2014,06,22,01,25,13.70
2014,06,22,01,26,13.70
2014,06,22,01,27,13.70
2014,06,22,01,28,13.70
2014,06,22,01,29,13.70
2014,06,22,01,30,13.70
2014,06,22,01,31,13.70
2014,06,22,01,32,13.70
2014,06,22,01,33,13.60
2014,06,22,01,34,13.60
2014,06,22,01,35,13.60
2014,06,22,01,36,13.60
2014,06,22,01,37,13.60
2014,06,22,01,38,13.60
2014,06,22,01,39,13.50
2014,06,22,01,40,13.50
2014,06,22,01,41,13.50
2014,06,22,01,42,13.50
2014,06,22,01,43,13.50
2014,06,22,01,44,13.40
2014,06,22,01,45,13.40
2014,06,22,01,46,13.40
2014,06,22,01,47,13.40
2014,06,22,01,48,13.40
2014,06,22,01,49,13.40
2014,06,22,01,50,13.40
2014,06,22,01,51,13.40
2014,06,22,01,52,13.40
2014,06,22,01,53,13.40
2014,06,22,01,54,13.40
2014,06,22,01,55,13.40
2014,06,22,01,56,13.40
2014,06,22,01,57,13.40
2014,06,22,01,58,13.40
2014,06,22,01,59,13.40
2014,06,22,02,00,13.40
2014,06,22,02,01,13.40
2014,06,22,02,02,13.40
2014,06,22,02,03,13.40
2014,06,22,02,04,13.40
2014,06,22,02,05,13.40
2014,06,22,02,06,13.40
2014,06,22,02,07,13.40
2014,06,22,02,08,13.50
2014,06,22,02,09,13.50
2014,06,22,02,10,13.50
2014,06,22,02,11,13.50
2014,06,22,02,12,13.50
2014,06,22,02,13,13.50
2014,06,22,02,14,13.60
2014,06,22,02,15,13.60
2014,06,22,02,16,13.60
2014,06,22,02,17,13.60
2014,06,22,02,18,13.60
2014,06,22,02,19,13.60
2014,06,22,02,20,13.60
2014,06,22,02,21,13.60
2014,06,22,02,22,13.60
2014,06,22,02,23,13.60
2014,06,22,02,24,13.60
2014,06,22,02,25,13.60
2014,06,22,02,26,13.60
2014,06,22,02,27,13.60
2014,06,22,02,28,13.60
2014,06,22,02,29,13.60
2014,06,22,02,30,13.60
2014,06,22,02,31,13.70
2014,06,22,02,32,13.70
2014,06,22,02,33,13.70
2014,06,22,02,34,13.70
2014,06,22,02,35,13.70
2014,06,22,02,36,13.70
2014,06,22,02,37,13.70
2014,06,22,02,38,13.70
2014,06,22,02,39,13.70
2014,06,22,02,40,13.70
2014,06,22,02,41,13.70
2014,06,22,02,42,13.70
2014,06,22,02,43,13.70
2014,06,22,02,44,13.70
2014,06,22,02,45,13.70
2014,06,22,02,46,13.70
2014,06,22,02,47,13.70
2014,06,22,02,48,13.70
2014,06,22,02,49,13.70
2014,06,22,02,50,13.70
2014,06,22,02,51,13.70
2014,06,22,02,52,13.70
2014,06,22,02,53,13.70
2014,06,22,02,54,13.70
2014,06,22,02,55,13.70
2014,06,22,02,56,13.70
2014,06,22,02,57,13.70
2014,06,22,02,58,13.70
2014,06,22,02,59,13.70
2014,06,22,03,00,13.70
2014,06,22,03,01,13.70
2014,06,22,03,02,13.70
2014,06,22,03,03,13.70
2014,06,22,03,04,13.70
2014,06,22,03,05,13.60
2014,06,22,03,06,13.60
2014,06,22,03,07,13.60
2014,06,22,03,08,13.60
2014,06,22,03,09,13.60
2014,06,22,03,10,13.50
2014,06,22,03,11,13.50
2014,06,22,03,12,13.50
2014,06,22,03,13,13.40
2014,06,22,03,14,13.40
2014,06,22,03,15,13.30
2014,06,22,03,16,13.30
2014,06,22,03,17,13.30
2014,06,22,03,18,13.20
2014,06,22,03,19,13.20
2014,06,22,03,20,13.20
2014,06,22,03,21,13.20
2014,06,22,03,22,13.20
2014,06,22,03,23,13.20
2014,06,22,03,24,13.20
2014,06,22,03,25,13.20
2014,06,22,03,26,13.10
2014,06,22,03,27,13.10
2014,06,22,03,28,13.10
2014,06,22,03,29,13.10
2014,06,22,03,30,13.10
2014,06,22,03,31,13.10
2014,06,22,03,32,13.10
2014,06,22,03,33,13.10
2014,06,22,03,34,13.00
2014,06,22,03,35,13.00
2014,06,22,03,36,13.00
2014,06,22,03,37,13.00
2014,06,22,03,38,13.00
2014,06,22,03,39,13.00
2014,06,22,03,40,13.00
2014,06,22,03,41,13.00
2014,06,22,03,42,13.00
2014,06,22,03,43,12.90
2014,06,22,03,44,12.90
2014,06,22,03,45,12.90
2014,06,22,03,46,12.90
2014,06,22,03,47,12.90
2014,06,22,03,48,12.80
2014,06,22,03,49,12.80
2014,06,22,03,50,12.80
2014,06,22,03,51,12.80
2014,06,22,03,52,12.80
2014,06,22,03,53,12.80
2014,06,22,03,54,12.80
2014,06,22,03,55,12.80
2014,06,22,03,56,12.80
2014,06,22,03,57,12.80
2014,06,22,03,58,12.80
2014,06,22,03,59,12.80
2014,06,22,04,00,12.80
2014,06,22,04,01,12.80
2014,06,22,04,02,12.80
2014,06,22,04,03,12.80
2014,06,22,04,04,12.80
2014,06,22,04,05,12.80
2014,06,22,04,06,12.80
2014,06,22,04,07,12.80
2014,06,22,04,08,12.80
2014,06,22,04,09,12.80
2014,06,22,04,10,12.80
2014,06,22,04,11,12.80
2014,06,22,04,12,12.80
2014,06,22,04,13,12.80
2014,06,22,04,14,12.80
2014,06,22,04,15,12.80
2014,06,22,04,16,12.80
2014,06,22,04,17,12.80
2014,06,22,04,18,12.80
2014,06,22,04,19,12.80
2014,06,22,04,20,12.80
2014,06,22,04,21,12.80
2014,06,22,04,22,12.80
2014,06,22,04,23,12.80
2014,06,22,04,24,12.80
2014,06,22,04,25,12.70
2014,06,22,04,26,12.70
2014,06,22,04,27,12.70
2014,06,22,04,28,12.70
2014,06,22,04,29,12.70
2014,06,22,04,30,12.70
2014,06,22,04,31,12.60
2014,06,22,04,32,12.60
2014,06,22,04,33,12.60
2014,06,22,04,34,12.60
2014,06,22,04,35,12.60
2014,06,22,04,36,12.50
2014,06,22,04,37,12.50
2014,06,22,04,38,12.50
2014,06,22,04,39,12.40
2014,06,22,04,40,12.40
2014,06,22,04,41,12.40
2014,06,22,04,42,12.30
2014,06,22,04,43,12.30
2014,06,22,04,44,12.30
2014,06,22,04,45,12.30
2014,06,22,04,46,12.30
2014,06,22,04,47,12.20
2014,06,22,04,48,12.20
2014,06,22,04,49,12.20
2014,06,22,04,50,12.20
2014,06,22,04,51,12.20
2014,06,22,04,52,12.20
2014,06,22,04,53,12.20
2014,06,22,04,54,12.20
2014,06,22,04,55,12.10
2014,06,22,04,56,12.10
2014,06,22,04,57,12.10
2014,06,22,04,58,12.10
2014,06,22,04,59,12.10
2014,06,22,05,00,12.00
2014,06,22,05,01,12.00
2014,06,22,05,02,12.00
2014,06,22,05,03,12.00
2014,06,22,05,04,11.90
2014,06,22,05,05,11.90
2014,06,22,05,06,11.90
2014,06,22,05,07,11.90
2014,06,22,05,08,11.90
2014,06,22,05,09,11.90
2014,06,22,05,10,11.80
2014,06,22,05,11,11.80
2014,06,22,05,12,11.80
2014,06,22,05,13,11.80
2014,06,22,05,14,11.80
2014,06,22,05,15,11.80
2014,06,22,05,16,11.80
2014,06,22,05,17,11.80
2014,06,22,05,18,11.80
2014,06,22,05,19,11.80
2014,06,22,05,20,11.70
2014,06,22,05,21,11.70
2014,06,22,05,22,11.70
2014,06,22,05,23,11.70
2014,06,22,05,24,11.70
2014,06,22,05,25,11.70
2014,06,22,05,26,11.70
2014,06,22,05,27,11.70
2014,06,22,05,28,11.70
2014,06,22,05,29,11.70
2014,06,22,05,30,11.70
2014,06,22,05,31,11.70
2014,06,22,05,32,11.70
2014,06,22,05,33,11.70
2014,06,22,05,34,11.70
2014,06,22,05,35,11.70
2014,06,22,05,36,11.70
2014,06,22,05,37,11.70
2014,06,22,05,38,11.60
2014,06,22,05,39,11.60
2014,06,22,05,40,11.60
2014,06,22,05,41,11.60
2014,06,22,05,42,11.60
2014,06,22,05,43,11.60
2014,06,22,05,44,11.60
2014,06,22,05,45,11.60
2014,06,22,05,46,11.60
2014,06,22,05,47,11.60
2014,06,22,05,48,11.60
2014,06,22,05,49,11.60
2014,06,22,05,50,11.60
2014,06,22,05,51,11.60
2014,06,22,05,52,11.60
2014,06,22,05,53,11.60
2014,06,22,05,54,11.60
2014,06,22,05,55,11.60
2014,06,22,05,56,11.60
2014,06,22,05,57,11.60
2014,06,22,05,58,11.60
2014,06,22,05,59,11.60
2014,06,22,06,00,11.60
2014,06,22,06,01,11.70
2014,06,22,06,02,11.70
2014,06,22,06,03,11.70
2014,06,22,06,04,11.70
2014,06,22,06,05,11.70
2014,06,22,06,06,11.70
2014,06,22,06,07,11.70
2014,06,22,06,08,11.70
2014,06,22,06,09,11.70
2014,06,22,06,10,11.80
2014,06,22,06,11,11.80
2014,06,22,06,12,11.80
2014,06,22,06,13,11.80
2014,06,22,06,14,11.80
2014,06,22,06,15,11.80
2014,06,22,06,16,11.80
2014,06,22,06,17,11.90
2014,06,22,06,18,11.90
2014,06,22,06,19,11.90
2014,06,22,06,20,11.90
2014,06,22,06,21,11.90
2014,06,22,06,22,12.00
2014,06,22,06,23,12.00
2014,06,22,06,24,12.00
2014,06,22,06,25,12.00
2014,06,22,06,26,12.10
2014,06,22,06,27,12.10
2014,06,22,06,28,12.10
2014,06,22,06,29,12.10
2014,06,22,06,30,12.10
2014,06,22,06,31,12.20
2014,06,22,06,32,12.20
2014,06,22,06,33,12.20
2014,06,22,06,34,12.20
2014,06,22,06,35,12.20
2014,06,22,06,36,12.20
2014,06,22,06,37,12.20
2014,06,22,06,38,12.20
2014,06,22,06,39,12.20
2014,06,22,06,40,12.30
2014,06,22,06,41,12.30
2014,06,22,06,42,12.30
2014,06,22,06,43,12.30
2014,06,22,06,44,12.30
2014,06,22,06,45,12.30
2014,06,22,06,46,12.30
2014,06,22,06,47,12.30
2014,06,22,06,48,12.30
2014,06,22,06,49,12.30
2014,06,22,06,50,12.30
2014,06,22,06,51,12.30
2014,06,22,06,52,12.30
2014,06,22,06,53,12.30
2014,06,22,06,54,12.30
2014,06,22,06,55,12.30
2014,06,22,06,56,12.30
2014,06,22,06,57,12.30
2014,06,22,06,58,12.40
2014,06,22,06,59,12.40
2014,06,22,07,00,12.40
2014,06,22,07,01,12.40
2014,06,22,07,02,12.40
2014,06,22,07,03,12.50
2014,06,22,07,04,12.50
2014,06,22,07,05,12.50
2014,06,22,07,06,12.60
2014,06,22,07,07,12.60
2014,06,22,07,08,12.60
2014,06,22,07,09,12.60
2014,06,22,07,10,12.70
2014,06,22,07,11,12.70
2014,06,22,07,12,12.70
2014,06,22,07,13,12.80
2014,06,22,07,14,12.80
2014,06,22,07,15,12.80
2014,06,22,07,16,12.90
2014,06,22,07,17,12.90
2014,06,22,07,18,12.90
2014,06,22,07,19,13.00
2014,06,22,07,20,13.00
2014,06,22,07,21,13.00
2014,06,22,07,22,13.10
2014,06,22,07,23,13.10
2014,06,22,07,24,13.20
2014,06,22,07,25,13.20
2014,06,22,07,26,13.20
2014,06,22,07,27,13.20
2014,06,22,07,28,13.30
2014,06,22,07,29,13.30
2014,06,22,07,30,13.30
2014,06,22,07,31,13.30
2014,06,22,07,32,13.30
2014,06,22,07,33,13.40
2014,06,22,07,34,13.40
2014,06,22,07,35,13.40
2014,06,22,07,36,13.40
2014,06,22,07,37,13.50
2014,06,22,07,38,13.60
2014,06,22,07,39,13.60
2014,06,22,07,40,13.60
2014,06,22,07,41,13.70
2014,06,22,07,42,13.70
2014,06,22,07,43,13.70
2014,06,22,07,44,13.80
2014,06,22,07,45,13.80
2014,06,22,07,46,13.80
2014,06,22,07,47,13.80
2014,06,22,07,48,13.90
2014,06,22,07,49,13.90
2014,06,22,07,50,13.90
2014,06,22,07,51,14.00
2014,06,22,07,52,14.00
2014,06,22,07,53,14.10
2014,06,22,07,54,14.10
2014,06,22,07,55,14.10
2014,06,22,07,56,14.20
2014,06,22,07,57,14.20
2014,06,22,07,58,14.20
2014,06,22,07,59,14.30
2014,06,22,08,00,14.30
2014,06,22,08,01,14.30
2014,06,22,08,02,14.40
2014,06,22,08,03,14.40
2014,06,22,08,04,14.40
2014,06,22,08,05,14.50
2014,06,22,08,06,14.50
2014,06,22,08,07,14.60
2014,06,22,08,08,14.60
2014,06,22,08,09,14.60
2014,06,22,08,10,14.60
2014,06,22,08,11,14.60
2014,06,22,08,12,14.60
2014,06,22,08,13,14.60
2014,06,22,08,14,14.60
2014,06,22,08,15,14.70
2014,06,22,08,16,14.70
2014,06,22,08,17,14.70
2014,06,22,08,18,14.70
2014,06,22,08,19,14.80
2014,06,22,08,20,14.80
2014,06,22,08,21,14.80
2014,06,22,08,22,14.80
2014,06,22,08,23,14.90
2014,06,22,08,24,14.90
2014,06,22,08,25,14.90
2014,06,22,08,26,14.90
2014,06,22,08,27,15.00
2014,06,22,08,28,15.00
2014,06,22,08,29,15.00
2014,06,22,08,30,15.00
2014,06,22,08,31,15.10
2014,06,22,08,32,15.10
2014,06,22,08,33,15.10
2014,06,22,08,34,15.10
2014,06,22,08,35,15.20
2014,06,22,08,36,15.20
2014,06,22,08,37,15.20
2014,06,22,08,38,15.20
2014,06,22,08,39,15.20
2014,06,22,08,40,15.30
2014,06,22,08,41,15.30
2014,06,22,08,42,15.30
2014,06,22,08,43,15.40
2014,06,22,08,44,15.40
2014,06,22,08,45,15.50
2014,06,22,08,46,15.50
2014,06,22,08,47,15.50
2014,06,22,08,48,15.60
2014,06,22,08,49,15.60
2014,06,22,08,50,15.70
2014,06,22,08,51,15.70
2014,06,22,08,52,15.70
2014,06,22,08,53,15.80
2014,06,22,08,54,15.80
2014,06,22,08,55,15.90
2014,06,22,08,56,15.90
2014,06,22,08,57,16.00
2014,06,22,08,58,16.10
2014,06,22,08,59,16.20
2014,06,22,09,00,16.30
2014,06,22,09,01,16.40
2014,06,22,09,02,16.50
2014,06,22,09,03,16.60
2014,06,22,09,04,16.60
2014,06,22,09,05,16.70
2014,06,22,09,06,16.80
2014,06,22,09,07,16.80
2014,06,22,09,08,16.80
2014,06,22,09,09,16.90
2014,06,22,09,10,16.90
2014,06,22,09,11,16.90
2014,06,22,09,12,17.00
2014,06,22,09,13,17.00
2014,06,22,09,14,17.00
2014,06,22,09,15,17.00
2014,06,22,09,16,17.00
2014,06,22,09,17,17.00
2014,06,22,09,18,17.00
2014,06,22,09,19,17.00
2014,06,22,09,20,16.90
2014,06,22,09,21,16.90
2014,06,22,09,22,16.90
2014,06,22,09,23,16.90
2014,06,22,09,24,16.90
2014,06,22,09,25,17.00
2014,06,22,09,26,17.00
2014,06,22,09,27,17.00
2014,06,22,09,28,16.90
2014,06,22,09,29,16.90
2014,06,22,09,30,16.90
2014,06,22,09,31,17.00
2014,06,22,09,32,17.00
2014,06,22,09,33,17.00
2014,06,22,09,34,17.00
2014,06,22,09,35,17.10
2014,06,22,09,36,17.10
2014,06,22,09,37,17.10
2014,06,22,09,38,17.20
2014,06,22,09,39,17.20
2014,06,22,09,40,17.20
2014,06,22,09,41,17.30
2014,06,22,09,42,17.30
2014,06,22,09,43,17.30
2014,06,22,09,44,17.40
2014,06,22,09,45,17.40
2014,06,22,09,46,17.40
2014,06,22,09,47,17.50
2014,06,22,09,48,17.50
2014,06,22,09,49,17.50
2014,06,22,09,50,17.60
2014,06,22,09,51,17.60
2014,06,22,09,52,17.60
2014,06,22,09,53,17.60
2014,06,22,09,54,17.70
2014,06,22,09,55,17.70
2014,06,22,09,56,17.70
2014,06,22,09,57,17.70
2014,06,22,09,58,17.70
2014,06,22,09,59,17.70
2014,06,22,10,00,17.70
2014,06,22,10,01,17.70
2014,06,22,10,02,17.70
2014,06,22,10,03,17.80
2014,06,22,10,04,17.80
2014,06,22,10,05,17.80
2014,06,22,10,06,17.80
2014,06,22,10,07,17.90
2014,06,22,10,08,17.90
2014,06,22,10,09,17.90
2014,06,22,10,10,18.00
2014,06,22,10,11,18.00
2014,06,22,10,12,18.00
2014,06,22,10,13,18.00
2014,06,22,10,14,18.00
2014,06,22,10,15,18.00
2014,06,22,10,16,18.00
2014,06,22,10,17,18.10
2014,06,22,10,18,18.10
2014,06,22,10,19,18.10
2014,06,22,10,20,18.10
2014,06,22,10,21,18.10
2014,06,22,10,22,18.10
2014,06,22,10,23,18.20
2014,06,22,10,24,18.20
2014,06,22,10,25,18.20
2014,06,22,10,26,18.20
2014,06,22,10,27,18.30
2014,06,22,10,28,18.30
2014,06,22,10,29,18.30
2014,06,22,10,30,18.30
2014,06,22,10,31,18.30
2014,06,22,10,32,18.30
2014,06,22,10,33,18.30
2014,06,22,10,34,18.30
2014,06,22,10,35,18.30
2014,06,22,10,36,18.30
2014,06,22,10,37,18.30
2014,06,22,10,38,18.30
2014,06,22,10,39,18.30
2014,06,22,10,40,18.30
2014,06,22,10,41,18.30
2014,06,22,10,42,18.30
2014,06,22,10,43,18.30
2014,06,22,10,44,18.30
2014,06,22,10,45,18.30
2014,06,22,10,46,18.20
2014,06,22,10,47,18.20
2014,06,22,10,48,18.20
2014,06,22,10,49,18.20
2014,06,22,10,50,18.20
2014,06,22,10,51,18.20
2014,06,22,10,52,18.30
2014,06,22,10,53,18.30
2014,06,22,10,54,18.30
2014,06,22,10,55,18.30
2014,06,22,10,56,18.30
2014,06,22,10,57,18.30
2014,06,22,10,58,18.30
2014,06,22,10,59,18.40
2014,06,22,11,00,18.40
2014,06,22,11,01,18.40
2014,06,22,11,02,18.40
2014,06,22,11,03,18.40
2014,06,22,11,04,18.50
2014,06,22,11,05,18.50
2014,06,22,11,06,18.60
2014,06,22,11,07,18.60
2014,06,22,11,08,18.60
2014,06,22,11,09,18.60
2014,06,22,11,10,18.60
2014,06,22,11,11,18.60
2014,06,22,11,12,18.60
2014,06,22,11,13,18.60
2014,06,22,11,14,18.60
2014,06,22,11,15,18.60
2014,06,22,11,16,18.50
2014,06,22,11,17,18.50
2014,06,22,11,18,18.50
2014,06,22,11,19,18.60
2014,06,22,11,20,18.60
2014,06,22,11,21,18.60
2014,06,22,11,22,18.60
2014,06,22,11,23,18.60
2014,06,22,11,24,18.70
2014,06,22,11,25,18.70
2014,06,22,11,26,18.70
2014,06,22,11,27,18.80
2014,06,22,11,28,18.80
2014,06,22,11,29,18.90
2014,06,22,11,30,18.90
2014,06,22,11,31,18.90
2014,06,22,11,32,18.90
2014,06,22,11,33,18.90
2014,06,22,11,34,19.00
2014,06,22,11,35,19.00
2014,06,22,11,36,19.10
2014,06,22,11,37,19.10
2014,06,22,11,38,19.10
2014,06,22,11,39,19.10
2014,06,22,11,40,19.10
2014,06,22,11,41,19.20
2014,06,22,11,42,19.20
2014,06,22,11,43,19.20
2014,06,22,11,44,19.30
2014,06,22,11,45,19.30
2014,06,22,11,46,19.30
2014,06,22,11,47,19.40
2014,06,22,11,48,19.40
2014,06,22,11,49,19.50
2014,06,22,11,50,19.50
2014,06,22,11,51,19.50
2014,06,22,11,52,19.60
2014,06,22,11,53,19.60
2014,06,22,11,54,19.70
2014,06,22,11,55,19.70
2014,06,22,11,56,19.70
2014,06,22,11,57,19.60
2014,06,22,11,58,19.60
2014,06,22,11,59,19.60
2014,06,22,12,00,19.50
2014,06,22,12,01,19.50
2014,06,22,12,02,19.50
2014,06,22,12,03,19.40
2014,06,22,12,04,19.40
2014,06,22,12,05,19.40
2014,06,22,12,06,19.40
2014,06,22,12,07,19.40
2014,06,22,12,08,19.50
2014,06,22,12,09,19.50
2014,06,22,12,10,19.60
2014,06,22,12,11,19.60
2014,06,22,12,12,19.70
2014,06,22,12,13,19.70
2014,06,22,12,14,19.80
2014,06,22,12,15,19.80
2014,06,22,12,16,19.90
2014,06,22,12,17,20.00
2014,06,22,12,18,20.10
2014,06,22,12,19,20.20
2014,06,22,12,20,20.20
2014,06,22,12,21,20.30
2014,06,22,12,22,20.30
2014,06,22,12,23,20.30
2014,06,22,12,24,20.30
2014,06,22,12,25,20.30
2014,06,22,12,26,20.40
2014,06,22,12,27,20.40
2014,06,22,12,28,20.40
2014,06,22,12,29,20.40
2014,06,22,12,30,20.40
2014,06,22,12,31,20.30
2014,06,22,12,32,20.30
2014,06,22,12,33,20.30
2014,06,22,12,34,20.30
2014,06,22,12,35,20.20
2014,06,22,12,36,20.10
2014,06,22,12,37,20.10
2014,06,22,12,38,20.10
2014,06,22,12,39,20.10
2014,06,22,12,40,20.10
2014,06,22,12,41,20.20
2014,06,22,12,42,20.20
2014,06,22,12,43,20.30
2014,06,22,12,44,20.30
2014,06,22,12,45,20.30
2014,06,22,12,46,20.30
2014,06,22,12,47,20.30
2014,06,22,12,48,20.30
2014,06,22,12,49,20.30
2014,06,22,12,50,20.30
2014,06,22,12,51,20.30
2014,06,22,12,52,20.30
2014,06,22,12,53,20.30
2014,06,22,12,54,20.40
2014,06,22,12,55,20.40
2014,06,22,12,56,20.50
2014,06,22,12,57,20.50
2014,06,22,12,58,20.60
2014,06,22,12,59,20.70
2014,06,22,13,00,20.80
2014,06,22,13,01,20.80
2014,06,22,13,02,20.80
2014,06,22,13,03,20.80
2014,06,22,13,04,20.90
2014,06,22,13,05,20.90
2014,06,22,13,06,21.00
2014,06,22,13,07,21.10
2014,06,22,13,08,21.20
2014,06,22,13,09,21.30
2014,06,22,13,10,21.40
2014,06,22,13,11,21.50
2014,06,22,13,12,21.50
2014,06,22,13,13,21.50
2014,06,22,13,14,21.50
2014,06,22,13,15,21.40
2014,06,22,13,16,21.40
2014,06,22,13,17,21.40
2014,06,22,13,18,21.30
2014,06,22,13,19,21.30
2014,06,22,13,20,21.30
2014,06,22,13,21,21.30
2014,06,22,13,22,21.30
2014,06,22,13,23,21.30
2014,06,22,13,24,21.30
2014,06,22,13,25,21.20
2014,06,22,13,26,21.20
2014,06,22,13,27,21.20
2014,06,22,13,28,21.20
2014,06,22,13,29,21.30
2014,06,22,13,30,21.30
2014,06,22,13,31,21.20
2014,06,22,13,32,21.20
2014,06,22,13,33,21.20
2014,06,22,13,34,21.20
2014,06,22,13,35,21.20
2014,06,22,13,36,21.20
2014,06,22,13,37,21.20
2014,06,22,13,38,21.20
2014,06,22,13,39,21.20
2014,06,22,13,40,21.20
2014,06,22,13,41,21.30
2014,06,22,13,42,21.30
2014,06,22,13,43,21.30
2014,06,22,13,44,21.40
2014,06,22,13,45,21.40
2014,06,22,13,46,21.40
2014,06,22,13,47,21.40
2014,06,22,13,48,21.40
2014,06,22,13,49,21.40
2014,06,22,13,50,21.50
2014,06,22,13,51,21.50
2014,06,22,13,52,21.50
2014,06,22,13,53,21.50
2014,06,22,13,54,21.50
2014,06,22,13,55,21.50
2014,06,22,13,56,21.40
2014,06,22,13,57,21.40
2014,06,22,13,58,21.40
2014,06,22,13,59,21.40
2014,06,22,14,00,21.40
2014,06,22,14,01,21.40
2014,06,22,14,02,21.50
2014,06,22,14,03,21.50
2014,06,22,14,04,21.60
2014,06,22,14,05,21.50
2014,06,22,14,06,21.40
2014,06,22,14,07,21.40
2014,06,22,14,08,21.40
2014,06,22,14,09,21.50
2014,06,22,14,10,21.60
2014,06,22,14,11,21.60
2014,06,22,14,12,21.70
2014,06,22,14,13,21.80
2014,06,22,14,14,21.80
2014,06,22,14,15,21.80
2014,06,22,14,16,21.80
2014,06,22,14,17,21.90
2014,06,22,14,18,21.90
2014,06,22,14,19,21.80
2014,06,22,14,20,21.80
2014,06,22,14,21,21.80
2014,06,22,14,22,21.80
2014,06,22,14,23,21.80
2014,06,22,14,24,21.80
2014,06,22,14,25,21.80
2014,06,22,14,26,21.80
2014,06,22,14,27,21.80
2014,06,22,14,28,21.70
2014,06,22,14,29,21.70
2014,06,22,14,30,21.70
2014,06,22,14,31,21.70
2014,06,22,14,32,21.60
2014,06,22,14,33,21.60
2014,06,22,14,34,21.70
2014,06,22,14,35,21.70
2014,06,22,14,36,21.70
2014,06,22,14,37,21.70
2014,06,22,14,38,21.70
2014,06,22,14,39,21.70
2014,06,22,14,40,21.80
2014,06,22,14,41,21.90
2014,06,22,14,42,21.90
2014,06,22,14,43,22.00
2014,06,22,14,44,22.00
2014,06,22,14,45,22.10
2014,06,22,14,46,22.00
2014,06,22,14,47,22.00
2014,06,22,14,48,21.90
2014,06,22,14,49,21.90
2014,06,22,14,50,21.90
2014,06,22,14,51,21.90
2014,06,22,14,52,22.00
2014,06,22,14,53,22.10
2014,06,22,14,54,22.10
2014,06,22,14,55,22.10
2014,06,22,14,56,22.10
2014,06,22,14,57,22.10
2014,06,22,14,58,22.20
2014,06,22,14,59,22.20
2014,06,22,15,00,22.30
2014,06,22,15,01,22.30
2014,06,22,15,02,22.40
2014,06,22,15,03,22.40
2014,06,22,15,04,22.50
2014,06,22,15,05,22.50
2014,06,22,15,06,22.60
2014,06,22,15,07,22.60
2014,06,22,15,08,22.60
2014,06,22,15,09,22.60
2014,06,22,15,10,22.70
2014,06,22,15,11,22.70
2014,06,22,15,12,22.70
2014,06,22,15,13,22.60
2014,06,22,15,14,22.60
2014,06,22,15,15,22.60
2014,06,22,15,16,22.60
2014,06,22,15,17,22.60
2014,06,22,15,18,22.60
2014,06,22,15,19,22.60
2014,06,22,15,20,22.60
2014,06,22,15,21,22.60
2014,06,22,15,22,22.60
2014,06,22,15,23,22.60
2014,06,22,15,24,22.60
2014,06,22,15,25,22.60
2014,06,22,15,26,22.60
2014,06,22,15,27,22.60
2014,06,22,15,28,22.70
2014,06,22,15,29,22.70
2014,06,22,15,30,22.70
2014,06,22,15,31,22.80
2014,06,22,15,32,22.80
2014,06,22,15,33,22.90
2014,06,22,15,34,22.90
2014,06,22,15,35,22.90
2014,06,22,15,36,22.90
2014,06,22,15,37,23.00
2014,06,22,15,38,23.00
2014,06,22,15,39,23.10
2014,06,22,15,40,23.10
2014,06,22,15,41,23.10
2014,06,22,15,42,23.10
2014,06,22,15,43,23.20
2014,06,22,15,44,23.20
2014,06,22,15,45,23.20
2014,06,22,15,46,23.30
2014,06,22,15,47,23.40
2014,06,22,15,48,23.40
2014,06,22,15,49,23.50
2014,06,22,15,50,23.60
2014,06,22,15,51,23.60
2014,06,22,15,52,23.60
2014,06,22,15,53,23.60
2014,06,22,15,54,23.50
2014,06,22,15,55,23.50
2014,06,22,15,56,23.40
2014,06,22,15,57,23.50
2014,06,22,15,58,23.50
2014,06,22,15,59,23.50
2014,06,22,16,00,23.50
2014,06,22,16,01,23.50
2014,06,22,16,02,23.50
2014,06,22,16,03,23.50
2014,06,22,16,04,23.50
2014,06,22,16,05,23.50
2014,06,22,16,06,23.50
2014,06,22,16,07,23.40
2014,06,22,16,08,23.40
2014,06,22,16,09,23.40
2014,06,22,16,10,23.50
2014,06,22,16,11,23.50
2014,06,22,16,12,23.60
2014,06,22,16,13,23.60
2014,06,22,16,14,23.60
2014,06,22,16,15,23.60
2014,06,22,16,16,23.50
2014,06,22,16,17,23.50
2014,06,22,16,18,23.50
2014,06,22,16,19,23.50
2014,06,22,16,20,23.40
2014,06,22,16,21,23.40
2014,06,22,16,22,23.30
2014,06,22,16,23,23.20
2014,06,22,16,24,23.20
2014,06,22,16,25,23.20
2014,06,22,16,26,23.20
2014,06,22,16,27,23.20
2014,06,22,16,28,23.20
2014,06,22,16,29,23.20
2014,06,22,16,30,23.20
2014,06,22,16,31,23.30
2014,06,22,16,32,23.30
2014,06,22,16,33,23.30
2014,06,22,16,34,23.30
2014,06,22,16,35,23.30
2014,06,22,16,36,23.30
2014,06,22,16,37,23.30
2014,06,22,16,38,23.30
2014,06,22,16,39,23.30
2014,06,22,16,40,23.30
2014,06,22,16,41,23.20
2014,06,22,16,42,23.20
2014,06,22,16,43,23.20
2014,06,22,16,44,23.20
2014,06,22,16,45,23.20
2014,06,22,16,46,23.30
2014,06,22,16,47,23.30
2014,06,22,16,48,23.40
2014,06,22,16,49,23.40
2014,06,22,16,50,23.50
2014,06,22,16,51,23.50
2014,06,22,16,52,23.50
2014,06,22,16,53,23.40
2014,06,22,16,54,23.50
2014,06,22,16,55,23.50
2014,06,22,16,56,23.50
2014,06,22,16,57,23.60
2014,06,22,16,58,23.60
2014,06,22,16,59,23.60
2014,06,22,17,00,23.60
2014,06,22,17,01,23.60
2014,06,22,17,02,23.50
2014,06,22,17,03,23.50
2014,06,22,17,04,23.50
2014,06,22,17,05,23.60
2014,06,22,17,06,23.60
2014,06,22,17,07,23.70
2014,06,22,17,08,23.80
2014,06,22,17,09,23.80
2014,06,22,17,10,23.80
2014,06,22,17,11,23.80
2014,06,22,17,12,23.90
2014,06,22,17,13,23.90
2014,06,22,17,14,24.00
2014,06,22,17,15,24.00
2014,06,22,17,16,24.00
2014,06,22,17,17,24.00
2014,06,22,17,18,23.90
2014,06,22,17,19,23.90